Back to catalog

STARLINK-31159

AliveCommunicationsVLEO
NORAD 58740·PAYLOAD·🇺🇸 United States

Launched Jan 7, 2024 from Cape Canaveral Space Force Station

Loading…

Next Passes (next 24 hours)

TLE

FreshSource: CelesTrak SupGP

Epoch: Sep 14, 2026, 13:56 UTC

1 58740C 24005N   26257.58104167 -.00022150  00000+0 -80210-3 0  2571
2 58740  42.9996 232.6229 0001200 274.3635 184.7849 15.27596243    10

Track STARLINK-31159 in real time with AllMySat

Download on the App Store